| time (UTC) | temp F | wind direction | speed MPH | gust MPH | rain 1hr in | rain 24hr in | rain mn in | humidity % | barometer mb |
| 20260901114509 | 74 | 144 | 0.0 | 0.0 | 0.00 | 0.00 | 0.00 | 94 | 1016.2 |
| 20260901113035 | 73 | 144 | 0.0 | 0.0 | 0.00 | 0.00 | 0.00 | 94 | 1016.2 |
| 20260901111507 | 73 | 143 | 0.0 | 0.0 | 0.00 | 0.00 | 0.00 | 94 | 1015.7 |
| 20260901110029 | 72 | 143 | 0.0 | 0.0 | 0.00 | 0.00 | 0.00 | 94 | 1015.7 |
| 20260901104513 | 72 | 144 | 0.0 | 0.0 | 0.00 | 0.00 | 0.00 | 94 | 1015.7 |
| 20260901103037 | 72 | 144 | 0.0 | 0.0 | 0.00 | 0.00 | 0.00 | 93 | 1015.7 |
| 20260901101553 | 73 | 143 | 0.0 | 0.0 | 0.00 | 0.00 | 0.00 | 94 | 1015.8 |
| 20260901100043 | 73 | 144 | 0.0 | 0.0 | 0.00 | 0.00 | 0.00 | 94 | 1015.7 |
| 20260901094511 | 73 | 144 | 0.0 | 0.0 | 0.00 | 0.00 | 0.00 | 94 | 1015.6 |
| 20260901093027 | 73 | 143 | 0.0 | 0.0 | 0.00 | 0.00 | 0.00 | 94 | 1015.6 |
| 20260901091509 | 72 | 144 | 0.0 | 0.0 | 0.00 | 0.00 | 0.00 | 94 | 1015.6 |
| 20260901090033 | 73 | 144 | 0.0 | 0.0 | 0.00 | 0.00 | 0.00 | 94 | 1015.7 |
| 20260901084549 | 73 | 144 | 0.0 | 0.0 | 0.00 | 0.00 | 0.00 | 94 | 1015.8 |
| 20260901083035 | 72 | 144 | 0.0 | 0.0 | 0.00 | 0.00 | 0.00 | 94 | 1015.8 |
| 20260901081553 | 72 | 144 | 0.0 | 0.0 | 0.00 | 0.00 | 0.00 | 94 | 1015.7 |
| 20260901080019 | 72 | 144 | 0.0 | 0.0 | 0.00 | 0.00 | 0.00 | 94 | 1015.9 |
| 20260901074537 | 73 | 143 | 0.0 | 0.0 | 0.00 | 0.00 | 0.00 | 94 | 1016.1 |
| 20260901073028 | 72 | 144 | 0.0 | 0.0 | 0.00 | 0.00 | 0.00 | 94 | 1016.0 |
| 20260901071547 | 73 | 144 | 0.0 | 0.0 | 0.00 | 0.00 | 0.00 | 94 | 1016.0 |
| 20260901070035 | 73 | 143 | 0.0 | 0.0 | 0.00 | 0.00 | 0.00 | 93 | 1015.9 |
| 20260901064553 | 73 | 143 | 0.0 | 0.0 | 0.00 | 0.00 | 0.00 | 93 | 1016.1 |
| 20260901063032 | 73 | 143 | 0.0 | 0.0 | 0.00 | 0.00 | 0.00 | 93 | 1016.1 |
| 20260901061503 | 73 | 144 | 0.0 | 0.0 | 0.00 | 0.00 | 0.00 | 93 | 1016.3 |
| 20260901060023 | 73 | 143 | 0.0 | 0.0 | 0.00 | 0.00 | 0.00 | 93 | 1016.5 |
| 20260901054544 | 74 | 143 | 0.0 | 0.0 | 0.00 | 0.00 | 0.00 | 93 | 1016.7 |
| 20260901053024 | 74 | 144 | 0.0 | 0.0 | 0.00 | 0.00 | 0.00 | 93 | 1017.0 |
| 20260901051542 | 74 | 143 | 0.0 | 0.0 | 0.00 | 0.00 | 0.00 | 93 | 1017.1 |
| 20260901050003 | 74 | 143 | 0.0 | 0.0 | 0.00 | 0.00 | 0.00 | 93 | 1017.2 |
| 20260901044527 | 74 | 143 | 0.0 | 0.0 | 0.00 | 0.00 | 0.00 | 93 | 1017.2 |
| 20260901043008 | 74 | 143 | 0.0 | 0.0 | 0.00 | 0.00 | 0.00 | 93 | 1017.0 |
| 20260901041529 | 74 | 144 | 0.0 | 0.0 | 0.00 | 0.00 | 0.00 | 93 | 1017.0 |
| 20260901040049 | 74 | 143 | 0.0 | 0.0 | 0.00 | 0.00 | 0.00 | 93 | 1016.8 |
| 20260901034534 | 74 | 144 | 0.0 | 0.0 | 0.00 | 0.00 | 0.00 | 93 | 1016.8 |
| 20260901033050 | 74 | 143 | 0.0 | 0.0 | 0.00 | 0.00 | 0.00 | 93 | 1016.9 |
| 20260901031517 | 74 | 143 | 0.0 | 0.0 | 0.00 | 0.00 | 0.00 | 92 | 1016.8 |
| 20260901030039 | 74 | 144 | 0.0 | 0.0 | 0.00 | 0.00 | 0.00 | 92 | 1016.8 |
| 20260901024520 | 74 | 144 | 0.0 | 0.0 | 0.00 | 0.00 | 0.00 | 92 | 1016.9 |
| 20260901023043 | 74 | 139 | 0.0 | 0.0 | 0.00 | 0.00 | 0.00 | 92 | 1017.0 |
| 20260901021503 | 75 | 138 | 0.0 | 0.0 | 0.00 | 0.00 | 0.00 | 91 | 1017.3 |
| 20260901020022 | 75 | 139 | 0.0 | 0.0 | 0.00 | 0.00 | 0.00 | 91 | 1017.4 |
| 20260901014557 | 75 | 138 | 0.0 | 0.0 | 0.00 | 0.00 | 0.00 | 91 | 1017.5 |
| 20260901013028 | 75 | 139 | 0.0 | 0.0 | 0.00 | 0.00 | 0.00 | 91 | 1017.5 |
| 20260901011547 | 75 | 139 | 0.0 | 0.0 | 0.00 | 0.00 | 0.00 | 91 | 1017.5 |
| 20260901010029 | 75 | 139 | 0.0 | 0.0 | 0.00 | 0.00 | 0.00 | 91 | 1017.4 |
| 20260901004607 | 75 | 138 | 0.0 | 0.0 | 0.00 | 0.00 | 0.00 | 91 | 1017.3 |
| 20260901004501 | 75 | 138 | 0.0 | 0.0 | 0.00 | 0.00 | 0.00 | 91 | 1017.3 |
| 20260901003025 | 75 | 138 | 0.0 | 0.0 | 0.00 | 0.00 | 0.00 | 91 | 1017.1 |
| 20260901001502 | 75 | 138 | 0.0 | 0.0 | 0.00 | 0.00 | 0.00 | 90 | 1017.2 |
| 20260901000021 | 75 | 138 | 0.0 | 0.0 | 0.00 | 0.00 | 0.00 | 90 | 1017.1 |
| 20260831234553 | 75 | 237 | 0.0 | 0.0 | 0.00 | 0.00 | 0.00 | 89 | 1017.2 |
| 20260831233033 | 76 | 117 | 0.0 | 0.0 | 0.00 | 0.00 | 0.00 | 89 | 1017.3 |
| 20260831231552 | 76 | 117 | 0.0 | 0.0 | 0.00 | 0.00 | 0.00 | 88 | 1017.3 |
| 20260831230037 | 76 | 117 | 0.0 | 0.0 | 0.00 | 0.00 | 0.00 | 88 | 1017.6 |
| 20260831224559 | 77 | 114 | 0.0 | 0.0 | 0.00 | 0.00 | 0.00 | 87 | 1017.5 |
| 20260831224503 | 77 | 114 | 0.0 | 0.0 | 0.00 | 0.00 | 0.00 | 87 | 1017.5 |
| 20260831223030 | 77 | 103 | 0.0 | 0.0 | 0.00 | 0.00 | 0.00 | 87 | 1017.8 |
| 20260831221509 | 77 | 111 | 0.0 | 2.0 | 0.00 | 0.00 | 0.00 | 86 | 1017.9 |
| 20260831220034 | 77 | 95 | 0.0 | 2.0 | 0.00 | 0.00 | 0.00 | 86 | 1018.2 |
| 20260831214554 | 77 | 87 | 0.0 | 3.0 | 0.00 | 0.00 | 0.00 | 86 | 1018.1 |
| 20260831213030 | 77 | 102 | 0.0 | 4.0 | 0.00 | 0.00 | 0.00 | 85 | 1018.1 |
| 20260831211509 | 78 | 124 | 0.0 | 6.0 | 0.00 | 0.00 | 0.00 | 84 | 1017.9 |
| 20260831210033 | 79 | 304 | 0.0 | 3.0 | 0.00 | 0.00 | 0.00 | 83 | 1018.1 |
| 20260831204545 | 78 | 89 | 0.0 | 6.0 | 0.00 | 0.00 | 0.00 | 84 | 1018.0 |
| 20260831203032 | 78 | 120 | 0.0 | 11.0 | 0.00 | 0.00 | 0.00 | 85 | 1017.5 |
| 20260831201514 | 78 | 113 | 2.0 | 7.0 | 0.00 | 0.00 | 0.00 | 84 | 1017.5 |
| 20260831200037 | 79 | 122 | 0.0 | 3.0 | 0.00 | 0.00 | 0.00 | 85 | 1017.4 |
| 20260831194630 | 79 | 116 | 0.0 | 5.0 | 0.00 | 0.00 | 0.00 | 84 | 1017.5 |
| 20260831193033 | 80 | 131 | 0.0 | 6.0 | 0.00 | 0.00 | 0.00 | 83 | 1017.5 |
| 20260831191506 | 80 | 287 | 1.0 | 6.0 | 0.00 | 0.00 | 0.00 | 81 | 1017.6 |
| 20260831190030 | 80 | 124 | 1.0 | 5.0 | 0.00 | 0.00 | 0.00 | 82 | 1017.6 |
| 20260831184510 | 81 | 113 | 1.0 | 6.0 | 0.00 | 0.00 | 0.00 | 81 | 1017.8 |
| 20260831183043 | 81 | 122 | 0.0 | 3.0 | 0.00 | 0.00 | 0.00 | 80 | 1017.8 |
| 20260831181503 | 81 | 125 | 0.0 | 6.0 | 0.00 | 0.00 | 0.00 | 80 | 1017.7 |
| 20260831180025 | 82 | 114 | 0.0 | 1.0 | 0.00 | 0.00 | 0.00 | 80 | 1017.8 |
| 20260831174522 | 82 | 252 | 0.0 | 3.0 | 0.00 | 0.00 | 0.00 | 80 | 1017.8 |
| 20260831173031 | 82 | 128 | 0.0 | 5.0 | 0.00 | 0.00 | 0.00 | 80 | 1017.9 |
| 20260831171553 | 83 | 125 | 1.0 | 4.0 | 0.00 | 0.00 | 0.00 | 78 | 1017.9 |
| 20260831170036 | 84 | 117 | 1.0 | 5.0 | 0.00 | 0.00 | 0.00 | 76 | 1018.1 |
| 20260831164558 | 83 | 282 | 0.0 | 5.0 | 0.00 | 0.00 | 0.00 | 78 | 1018.1 |
| 20260831163016 | 82 | 102 | 0.0 | 3.0 | 0.00 | 0.00 | 0.00 | 78 | 1018.2 |
| 20260831161550 | 82 | 117 | 0.0 | 4.0 | 0.00 | 0.00 | 0.00 | 78 | 1018.5 |
| 20260831160029 | 82 | 105 | 0.0 | 4.0 | 0.00 | 0.00 | 0.00 | 78 | 1018.4 |
| 20260831154514 | 82 | 109 | 1.0 | 6.0 | 0.00 | 0.00 | 0.00 | 77 | 1018.5 |
| 20260831153036 | 82 | 104 | 0.0 | 2.0 | 0.00 | 0.00 | 0.00 | 77 | 1018.6 |
| 20260831151517 | 81 | 118 | 0.0 | 5.0 | 0.00 | 0.00 | 0.00 | 78 | 1018.6 |
| 20260831150037 | 81 | 101 | 0.0 | 4.0 | 0.00 | 0.00 | 0.00 | 78 | 1018.5 |
| 20260831144558 | 81 | 106 | 0.0 | 3.0 | 0.00 | 0.00 | 0.00 | 79 | 1018.5 |
| 20260831144501 | 81 | 299 | 0.0 | 3.0 | 0.00 | 0.00 | 0.00 | 78 | 1018.5 |
| 20260831143110 | 81 | 86 | 0.0 | 4.0 | 0.00 | 0.00 | 0.00 | 78 | 1018.4 |
| 20260831141540 | 80 | 108 | 0.0 | 3.0 | 0.00 | 0.00 | 0.00 | 81 | 1018.5 |
| 20260831140058 | 80 | 130 | 0.0 | 2.0 | 0.00 | 0.00 | 0.00 | 82 | 1018.5 |
| 20260831134539 | 80 | 123 | 0.0 | 5.0 | 0.00 | 0.00 | 0.00 | 85 | 1018.6 |
| 20260831133053 | 79 | 97 | 0.0 | 3.0 | 0.00 | 0.00 | 0.00 | 90 | 1018.5 |
| 20260831131531 | 77 | 316 | 0.0 | 0.0 | 0.00 | 0.00 | 0.00 | 94 | 1018.5 |
| 20260831130054 | 76 | 316 | 0.0 | 0.0 | 0.00 | 0.00 | 0.00 | 94 | 1018.6 |
| 20260831124514 | 76 | 134 | 0.0 | 0.0 | 0.00 | 0.00 | 0.00 | 95 | 1018.5 |
| 20260831123049 | 75 | 209 | 0.0 | 0.0 | 0.00 | 0.00 | 0.00 | 95 | 1018.4 |
| 20260831121511 | 74 | 271 | 0.0 | 0.0 | 0.00 | 0.00 | 0.00 | 95 | 1018.1 |
| 20260831120047 | 74 | 271 | 0.0 | 0.0 | 0.00 | 0.00 | 0.00 | 95 | 1018.3 |